TimeCDT,TemperatureF,Dew PointF,Humidity,Sea Level PressureIn,VisibilityMPH,Wind Direction,Wind SpeedMPH,Gust SpeedMPH,PrecipitationIn,Events,Conditions,WindDirDegrees,DateUTC
12:53 AM,55.9,30.0,37,30.03,10.0,Calm,Calm,-,N/A,,Clear,0,2011-10-24 05:53:00
1:53 AM,51.1,30.0,44,30.03,10.0,NNE,3.5,-,N/A,,Clear,30,2011-10-24 06:53:00
2:53 AM,46.9,30.9,54,30.04,10.0,WSW,3.5,-,N/A,,Clear,250,2011-10-24 07:53:00
3:53 AM,45.0,32.0,60,30.03,10.0,SW,3.5,-,N/A,,Clear,220,2011-10-24 08:53:00
4:53 AM,43.0,30.0,60,30.03,10.0,SSW,4.6,-,N/A,,Clear,200,2011-10-24 09:53:00
5:53 AM,44.1,32.0,63,30.02,10.0,SW,6.9,-,N/A,,Clear,220,2011-10-24 10:53:00
6:53 AM,46.9,34.0,61,30.04,10.0,SSW,8.1,-,N/A,,Clear,210,2011-10-24 11:53:00
7:53 AM,50.0,36.0,59,30.04,10.0,SSW,10.4,-,N/A,,Clear,200,2011-10-24 12:53:00
8:53 AM,57.9,39.9,51,30.03,10.0,SSW,17.3,-,N/A,,Clear,210,2011-10-24 13:53:00
9:53 AM,66.0,44.1,45,30.02,10.0,SSW,23.0,31.1,N/A,,Clear,210,2011-10-24 14:53:00
10:53 AM,72.0,45.0,38,30.00,10.0,SSW,25.3,33.4,N/A,,Clear,210,2011-10-24 15:53:00
11:53 AM,75.9,46.0,35,29.98,10.0,SSW,29.9,35.7,N/A,,Clear,200,2011-10-24 16:53:00
12:53 PM,79.0,45.0,30,29.93,10.0,SSW,28.8,38.0,N/A,,Clear,200,2011-10-24 17:53:00
1:53 PM,82.0,45.0,27,29.89,10.0,South,26.5,39.1,N/A,,Clear,190,2011-10-24 18:53:00
2:53 PM,84.9,43.0,23,29.84,10.0,South,25.3,40.3,N/A,,Clear,190,2011-10-24 19:53:00
3:53 PM,87.1,39.9,19,29.80,10.0,SSW,32.2,43.7,N/A,,Clear,200,2011-10-24 20:53:00
4:53 PM,87.1,35.1,16,29.79,10.0,SSW,32.2,41.4,N/A,,Clear,210,2011-10-24 21:53:00
5:53 PM,84.9,34.0,16,29.78,10.0,SSW,24.2,32.2,N/A,,Clear,210,2011-10-24 22:53:00
6:53 PM,81.0,30.9,16,29.78,10.0,SSW,20.7,28.8,N/A,,Clear,200,2011-10-24 23:53:00
7:53 PM,73.0,33.1,23,29.80,10.0,South,12.7,-,N/A,,Clear,190,2011-10-25 00:53:00
8:53 PM,73.0,37.0,27,29.79,10.0,South,17.3,25.3,N/A,,Clear,190,2011-10-25 01:53:00
9:53 PM,70.0,39.0,32,29.79,10.0,South,20.7,-,N/A,,Clear,190,2011-10-25 02:53:00
10:53 PM,69.1,39.0,33,29.79,10.0,South,18.4,26.5,N/A,,Clear,190,2011-10-25 03:53:00
11:53 PM,70.0,37.9,31,29.76,10.0,SSW,26.5,35.7,N/A,,Clear,200,2011-10-25 04:53:00